Flag for U.S.A. Weather past 2 weeks in Hudson, Wisconsin, U.S.A.

Now
46 °F

Clear.


Feels Like: 41 °F
Forecast: 37 / 56 °F
Wind: 10 mph from Southeast

Location: St. Paul Downtown Holman Field

Current Time: Oct 22, 2014 at 12:35:54 AM

Latest Report: Oct 21, 2014 at 11:53 PM


Visibility: 10 mi

Pressure: 30.20 "Hg

Humidity: 73%

Dew point: 38 °F

Location of HudsonLocation

Historic Weather in Hudson — Graph

°F

Hudson temperature yesterday

Maximum temperature yesterday: 57 °F (at 2:53 PM)
Minimum temperature yesterday: 37 °F (at 6:53 AM)
Average temperature yesterday: 47 °F

Past Weeks' High & Low Weather Summary

 TemperatureHumidityPressure
High71 °F (Oct 16, 2:53 PM)100% (Oct 11, 5:53 AM)30.30 "Hg (Oct 11, 5:53 AM)
Low33 °F (Oct 10, 6:53 AM)31% (Oct 15, 3:53 PM)29.46 "Hg (Oct 6, 10:53 PM)
Average49 °F69%29.97 "Hg
* Reported Oct 6 10:53 PM — Oct 21 10:53 PM, Hudson, Weather by CustomWeather, © 2014

Note: Actual official high and low records may vary slightly from our data, if they occured in-between our weather recording intervals... More about our weather records

Advertising

Hudson weather history for previous 24 hours

 ConditionsComfort  
Time TempWeatherWind HumidityBarometerVisibility
10:53 PM
Oct 21
47 °FClear.9 mph74%30.21 "Hg10 mi
9:53 PM47 °FClear.7 mph74%30.20 "Hg10 mi
8:53 PM48 °FClear.3 mph71%30.19 "Hg10 mi
7:53 PM51 °FClear.8 mph63%30.18 "Hg10 mi
6:53 PM52 °FSunny.9 mph61%30.17 "Hg10 mi
5:53 PM54 °FSunny.13 mph57%30.16 "Hg10 mi
4:53 PM56 °FSunny.13 mph53%30.15 "Hg10 mi
3:53 PM57 °FSunny.10 mph53%30.16 "Hg10 mi
2:53 PM57 °FSunny.10 mph55%30.17 "Hg10 mi
1:53 PM56 °FSunny.8 mph55%30.19 "Hg10 mi
12:53 PM53 °FSunny.12 mph61%30.20 "Hg10 mi
11:53 AM51 °FSunny.10 mph63%30.22 "Hg10 mi
10:53 AM48 °FSunny.14 mph71%30.23 "Hg10 mi
9:53 AM45 °FSunny.14 mph80%30.24 "Hg10 mi
8:53 AM43 °FSunny.3 mph89%30.22 "Hg10 mi
7:53 AM39 °FClear.No wind93%30.21 "Hg10 mi
6:53 AM37 °FClear.No wind96%30.19 "Hg10 mi
5:53 AM38 °FClear.No wind93%30.18 "Hg10 mi
4:53 AM38 °FClear.3 mph93%30.17 "Hg10 mi
3:53 AM40 °FClear.5 mph93%30.16 "Hg10 mi
2:53 AM42 °FClear.5 mph85%30.15 "Hg10 mi
1:53 AM39 °FClear.No wind93%30.13 "Hg10 mi
12:53 AM41 °FClear.No wind86%30.11 "Hg10 mi
Weather by CustomWeather, © 2014

See weather overviewHow to use our weather pages